Regional Weather Roundup
Issued by NWS

Home | Current Version | Previous Version | Text Only | Print | Product List | Glossary Off
Versions: 1 2 3 4 5 6 7 8 9 10 11 12 13 14 15 16 17 18 19 20 21 22 23 24 25 26 27 28 29 30 31 32 33 34 35 36 37 38 39 40 41 42 43 44 45 46 47 48 49 50

039
ASUS44 KLIX 281310
RWRLA
LOUISIANA WEATHER ROUNDUP
NATIONAL WEATHER SERVICE NEW ORLEANS LA
800 AM CDT MON JUL 28 2014

NOTE: "FAIR" INDICATES FEW OR NO CLOUDS BELOW 12,000 FEET WITH NO
      SIGNIFICANT WEATHER AND/OR OBSTRUCTIONS TO VISIBILITY.
      SKY/WX - SKY CONDITION AND SIGNIFICANT WEATHER.
      TMP - AIR TEMPERATURE.    DP   - DEWPOINT TEMPERATURE.
      RH  - RELATIVE HUMIDITY.  PRES - PRESSURE.
      HX  - HEAT INDEX.         WCI  - WIND CHILL INDEX.

*  THESE STATIONS ARE NOT NWS OR FAA STATIONS AND ARE NOT UNDER
   NWS QUALITY CONTROL.

LAZ040-048-061>063-065-066-069-281400-
SOUTHEAST LOUISIANA

CITY           SKY/WX    TMP DP  RH WIND       PRES   REMARKS
N.O. AUDUBON     N/A     85  77  79 MISG        N/A  HX  95
N.O. INTL ARPT MOSUNNY   83  76  79 W9        30.09R
N.O. LAKEFRONT SUNNY     84  77  79 W17       30.09R
N.O. DOWNTOWN* FAIR      84  73  70 NW6       30.10R
SLIDELL        SUNNY     82  76  81 W5        30.08R
BATON ROUGE    SUNNY     81  76  84 W10       30.10R
BOOTHVILLE     SUNNY     83  79  88 NW10      30.10R
BELLE CHASSE   MOSUNNY   83  75  77 VRB6      30.09R
BOGALUSA*      FAIR      82  75  80 W6        30.10R
GALLIANO*      NOT AVBL
NEW ROADS*     FAIR      78  77  95 W3        30.10R
GONZALES*      FAIR      80  79  95 W3        30.10R
HAMMOND*       SUNNY     81  73  78 W6        30.11R
HOUMA*         SUNNY     82  73  74 CALM      30.10R
PORT FOURCHON* PTSUNNY   86  77  74 NW12      30.13R HX  97

$$

LAZ041-044-053-054-281400-
SOUTHWEST LOUISIANA

CITY           SKY/WX    TMP DP  RH WIND       PRES   REMARKS
LAKE CHARLES   SUNNY     82  77  84 W5        30.10R
LAFAYETTE      SUNNY     82  77  84 W8        30.10R
PATTERSON      SUNNY     82  77  83 W3        30.14R
SALT POINT       N/A     87  78  74 W6        30.09R HX 100
NEW IBERIA     SUNNY     81  77  88 CALM      30.11R
CHENAULT AIRPK SUNNY     82  75  78 CALM      30.11R

$$

LAZ027-028-281400-
CENTRAL LOUISIANA

CITY           SKY/WX    TMP DP  RH WIND       PRES   REMARKS
FORT POLK      MOSUNNY   78  76  93 W5        30.10R
ALEXANDRIA INT SUNNY     78  76  93 CALM      30.08R FOG
ALEXANDRIA     SUNNY     80  76  87 W5        30.09R

$$

LAZ001-002-281400-
NORTHWEST LOUISIANA

CITY           SKY/WX    TMP DP  RH WIND       PRES   REMARKS
SHREVEPORT     PTSUNNY   80  75  84 N3        30.09S
BARKSDALE AFB  PTSUNNY   79  75  89 N2        30.10R
DTN SHREVEPORT LGT RAIN  78  75  90 E3        30.10R

$$

LAZ014-016-281400-
NORTHEAST LOUISIANA

CITY           SKY/WX    TMP DP  RH WIND       PRES   REMARKS
MONROE         TSTM      76  73  91 CALM      30.09S
TALLULAH       CLOUDY    77  75  93 W5        30.07S

$$




USA.gov is the U.S. government's official web portal to all federal, state and local government web resources and services.